• In Hungary
  • List of Countries
  • For 7 days
  • Water Temperature
  • Satellite Maps
  • Weather Map
  • News
  • Weather Widgets
  • user-avatar
    Login

    Hourly Weather Maskat

    Today, 18 June, Monday

    Time Temperature Precipitation Wind Pressure Humidity
    00:00 +39°C° 0 mm 1 mps 743 mmHg 22%
    01:00 +37°C° 0 mm 1 mps 743 mmHg 22%
    02:00 +36°C° 0 mm 1 mps 743 mmHg 23%
    03:00 +36°C° 0 mm 1 mps 743 mmHg 23%
    04:00 +35°C° 0 mm 1 mps 743 mmHg 24%
    05:00 +36°C° 0 mm 1 mps 743 mmHg 22%
    06:00 +38°C° 0 mm 2 mps 743 mmHg 20%
    07:00 +39°C° 0 mm 2 mps 744 mmHg 18%
    08:00 +42°C° 0 mm 3 mps 744 mmHg 16%
    09:00 +43°C° 0 mm 4 mps 744 mmHg 15%
    10:00 +45°C° 0 mm 4 mps 744 mmHg 13%
    11:00 +46°C° 0 mm 5 mps 744 mmHg 14%
    12:00 +46°C° 0 mm 5 mps 744 mmHg 14%
    13:00 +46°C° 0 mm 6 mps 743 mmHg 15%
    14:00 +46°C° 0 mm 6 mps 743 mmHg 17%
    15:00 +45°C° 0 mm 5 mps 743 mmHg 18%
    16:00 +45°C° 0 mm 5 mps 743 mmHg 19%
    17:00 +43°C° 0 mm 5 mps 743 mmHg 22%
    18:00 +41°C° 0 mm 4 mps 743 mmHg 24%
    19:00 +39°C° 0 mm 3 mps 743 mmHg 27%
    20:00 +39°C° 0 mm 3 mps 743 mmHg 27%
    21:00 +39°C° 0 mm 2 mps 744 mmHg 28%
    22:00 +38°C° 0 mm 2 mps 744 mmHg 28%
    23:00 +38°C° 0 mm 2 mps 744 mmHg 27%

    Tomorrow, 19 June, Tuesday

    Time Temperature Precipitation Wind Pressure Humidity
    00:00 +38°C° 0 mm 2 mps 744 mmHg 26%
    01:00 +38°C° 0 mm 2 mps 744 mmHg 25%
    02:00 +37°C° 0 mm 3 mps 744 mmHg 28%
    03:00 +37°C° 0 mm 3 mps 744 mmHg 31%
    04:00 +36°C° 0 mm 3 mps 744 mmHg 34%
    05:00 +37°C° 0 mm 3 mps 744 mmHg 34%
    06:00 +37°C° 0 mm 3 mps 745 mmHg 35%
    07:00 +37°C° 0 mm 3 mps 745 mmHg 35%
    08:00 +39°C° 0 mm 2 mps 745 mmHg 30%
    09:00 +41°C° 0 mm 2 mps 745 mmHg 25%
    10:00 +42°C° 0 mm 2 mps 745 mmHg 20%
    11:00 +44°C° 0 mm 3 mps 745 mmHg 19%
    12:00 +45°C° 0 mm 3 mps 745 mmHg 19%
    13:00 +47°C° 0 mm 4 mps 745 mmHg 18%
    14:00 +45°C° 0 mm 4 mps 745 mmHg 19%
    15:00 +45°C° 0 mm 4 mps 744 mmHg 20%
    16:00 +44°C° 0 mm 3 mps 744 mmHg 20%
    17:00 +44°C° 0 mm 3 mps 744 mmHg 21%
    18:00 +43°C° 0 mm 3 mps 744 mmHg 22%
    19:00 +42°C° 0 mm 3 mps 744 mmHg 22%
    20:00 +42°C° 0 mm 3 mps 744 mmHg 23%
    21:00 +42°C° 0 mm 3 mps 745 mmHg 23%
    22:00 +40°C° 0 mm 3 mps 745 mmHg 24%
    23:00 +40°C° 0 mm 3 mps 745 mmHg 26%

    Day after tomorrow, 20 June, Wednesday

    Time Temperature Precipitation Wind Pressure Humidity
    00:00 +40°C° 0 mm 3 mps 745 mmHg 27%
    01:00 +39°C° 0 mm 3 mps 745 mmHg 29%
    02:00 +39°C° 0 mm 3 mps 744 mmHg 33%
    03:00 +38°C° 0 mm 3 mps 744 mmHg 36%
    04:00 +37°C° 0 mm 3 mps 744 mmHg 40%
    05:00 +38°C° 0 mm 2 mps 745 mmHg 38%
    06:00 +39°C° 0 mm 2 mps 745 mmHg 35%
    07:00 +39°C° 0 mm 2 mps 745 mmHg 33%
    08:00 +41°C° 0 mm 2 mps 746 mmHg 27%
    09:00 +43°C° 0 mm 2 mps 746 mmHg 22%
    10:00 +44°C° 0 mm 1 mps 746 mmHg 16%
    11:00 +46°C° 0 mm 2 mps 746 mmHg 15%
    12:00 +47°C° 0 mm 2 mps 745 mmHg 14%
    13:00 +48°C° 0 mm 3 mps 745 mmHg 13%
    14:00 +47°C° 0 mm 3 mps 745 mmHg 13%
    15:00 +47°C° 0 mm 3 mps 744 mmHg 14%
    16:00 +47°C° 0 mm 2 mps 744 mmHg 14%
    17:00 +46°C° 0 mm 2 mps 744 mmHg 15%
    18:00 +45°C° 0 mm 2 mps 744 mmHg 15%
    19:00 +43°C° 0 mm 2 mps 744 mmHg 15%
    20:00 +43°C° 0 mm 2 mps 745 mmHg 16%
    21:00 +43°C° 0 mm 3 mps 745 mmHg 16%
    22:00 +43°C° 0 mm 3 mps 745 mmHg 16%
    23:00 +42°C° 0 mm 3 mps 745 mmHg 20%

    21 June, Thursday

    Time Temperature Precipitation Wind Pressure Humidity
    00:00 +42°C° 0 mm 4 mps 745 mmHg 24%
    01:00 +41°C° 0 mm 4 mps 744 mmHg 29%
    02:00 +41°C° 0 mm 4 mps 744 mmHg 33%
    03:00 +39°C° 0 mm 3 mps 744 mmHg 37%
    04:00 +38°C° 0 mm 3 mps 744 mmHg 42%
    05:00 +38°C° 0 mm 3 mps 745 mmHg 40%
    06:00 +39°C° 0 mm 3 mps 745 mmHg 39%
    07:00 +39°C° 0 mm 3 mps 745 mmHg 38%
    08:00 +42°C° 0 mm 3 mps 745 mmHg 31%
    09:00 +43°C° 0 mm 2 mps 746 mmHg 24%
    10:00 +46°C° 0 mm 2 mps 746 mmHg 17%
    11:00 +47°C° 0 mm 3 mps 745 mmHg 15%
    12:00 +48°C° 0 mm 3 mps 745 mmHg 13%
    13:00 +51°C° 0 mm 4 mps 744 mmHg 11%
    14:00 +50°C° 0 mm 4 mps 744 mmHg 11%
    15:00 +49°C° 0 mm 5 mps 743 mmHg 12%
    16:00 +49°C° 0 mm 5 mps 743 mmHg 12%
    17:00 +47°C° 0 mm 3 mps 743 mmHg 13%
    18:00 +46°C° 0 mm 2 mps 743 mmHg 14%
    19:00 +44°C° 0 mm 1 mps 743 mmHg 15%
    20:00 +43°C° 0 mm 2 mps 743 mmHg 15%
    21:00 +44°C° 0 mm 3 mps 744 mmHg 15%
    22:00 +44°C° 0 mm 4 mps 744 mmHg 14%
    23:00 +43°C° 0 mm 4 mps 743 mmHg 16%

    22 June, Friday

    Time Temperature Precipitation Wind Pressure Humidity
    00:00 +43°C° 0 mm 4 mps 743 mmHg 18%
    01:00 +43°C° 0 mm 5 mps 743 mmHg 20%
    02:00 +42°C° 0 mm 5 mps 743 mmHg 24%
    03:00 +41°C° 0 mm 4 mps 743 mmHg 29%
    04:00 +40°C° 0 mm 4 mps 743 mmHg 34%
    05:00 +40°C° 0 mm 5 mps 743 mmHg 34%
    06:00 +40°C° 0 mm 5 mps 743 mmHg 34%
    07:00 +41°C° 0 mm 5 mps 744 mmHg 34%
    08:00 +43°C° 0 mm 5 mps 744 mmHg 27%
    09:00 +46°C° 0 mm 5 mps 744 mmHg 21%
    10:00 +48°C° 0 mm 5 mps 744 mmHg 14%
    11:00 +49°C° 0 mm 6 mps 744 mmHg 13%
    12:00 +49°C° 0 mm 6 mps 743 mmHg 13%
    13:00 +51°C° 0 mm 7 mps 743 mmHg 12%
    14:00 +49°C° 0 mm 6 mps 742 mmHg 14%
    15:00 +48°C° 0 mm 6 mps 742 mmHg 15%
    16:00 +48°C° 0 mm 5 mps 741 mmHg 17%
    17:00 +47°C° 0 mm 4 mps 742 mmHg 18%
    18:00 +45°C° 0 mm 3 mps 742 mmHg 19%
    19:00 +44°C° 0 mm 3 mps 742 mmHg 21%
    20:00 +44°C° 0 mm 3 mps 742 mmHg 20%
    21:00 +44°C° 0 mm 3 mps 742 mmHg 19%
    22:00 +43°C° 0 mm 3 mps 743 mmHg 18%
    23:00 +43°C° 0 mm 3 mps 742 mmHg 19%

    23 June, Saturday

    Time Temperature Precipitation Wind Pressure Humidity
    00:00 +42°C° 0 mm 3 mps 742 mmHg 20%
    01:00 +40°C° 0 mm 2 mps 742 mmHg 21%
    02:00 +40°C° 0 mm 2 mps 742 mmHg 24%
    03:00 +39°C° 0 mm 2 mps 742 mmHg 28%
    04:00 +38°C° 0 mm 2 mps 742 mmHg 31%
    05:00 +39°C° 0 mm 2 mps 742 mmHg 32%
    06:00 +39°C° 0 mm 2 mps 742 mmHg 32%
    07:00 +40°C° 0 mm 2 mps 743 mmHg 33%
    08:00 +42°C° 0 mm 2 mps 743 mmHg 26%
    09:00 +45°C° 0 mm 2 mps 743 mmHg 20%
    10:00 +47°C° 0 mm 2 mps 743 mmHg 13%
    11:00 +47°C° 0 mm 3 mps 743 mmHg 13%
    12:00 +48°C° 0 mm 3 mps 742 mmHg 13%
    13:00 +49°C° 0 mm 4 mps 742 mmHg 13%
    14:00 +48°C° 0 mm 3 mps 741 mmHg 15%
    15:00 +47°C° 0 mm 3 mps 741 mmHg 17%
    16:00 +46°C° 0 mm 2 mps 741 mmHg 19%
    17:00 +45°C° 0 mm 2 mps 741 mmHg 21%
    18:00 +43°C° 0 mm 2 mps 741 mmHg 22%
    19:00 +43°C° 0 mm 2 mps 741 mmHg 23%
    20:00 +42°C° 0 mm 2 mps 741 mmHg 23%
    21:00 +42°C° 0 mm 2 mps 741 mmHg 23%
    22:00 +43°C° 0 mm 3 mps 742 mmHg 23%
    23:00 +42°C° 0 mm 3 mps 742 mmHg 24%
    Show more